AirNav   Everest Fuels
 
 654 users online  

2MU1 Saint Louis Children's Hospital Heliport
Saint Louis, Missouri, USA

GOING TO SAINT LOUIS?


FAA INFORMATION EFFECTIVE 05 DECEMBER 2019

Location

FAA Identifier: 2MU1
Lat/Long: 38-38-16.7000N 090-15-53.6500W
38-38.278333N 090-15.894167W
38.6379722,-90.2649028
(estimated)
Elevation: 610 ft. / 186 m (estimated)
Variation: 01E (1995)
Time zone: UTC -6 (UTC -5 during Daylight Saving Time)
Zip code: 63110

Heliport Operations

Heliport use: Private use, MEDICAL USE.
Activation date: 07/1997
Control tower: no
ARTCC: KANSAS CITY CENTER
FSS: SAINT LOUIS FLIGHT SERVICE STATION
Attendance: ON CALL
Wind indicator: yes
Segmented circle: no
Lights: FOR PERIMETER LGTS CALL 417-434-6000.

Heliport Communications

WX ASOS at CPS (7 nm SE): PHONE 618-332-0001
WX ASOS at STL (8 nm NW): PHONE 314-890-4790
WX ASOS at SUS (18 nm W): 134.8 (314-890-7255)
WX AWOS-3 at ALN (18 nm NE): 128.0 (618-259-7231)
WX ASOS at SET (19 nm NW): 118.075 (636-250-4590)

Nearby radio navigation aids

VOR radial/distance  VOR name  Freq  Var
STLr142/16.8ST LOUIS VORTAC117.4001E
TOYr245/17.3TROY VORTAC116.0004E
FTZr091/33.3FORISTELL VORTAC110.8005E

 
NDB name  Hdg/Dist  Freq  Var  ID
ZUMAY177/9.040401WST ... -
ACORE306/12.035000ECP -.-. .--.
EAVES101/13.422701WFZ ..-. --..
OBLIO136/13.833801WLM .-.. --
CIVIC MEMORIAL214/18.126301WCVM -.-. ...- --

Heliport Services

Runway Information

Helipad H1

Dimensions: 60 x 60 ft. / 18 x 18 m
Surface: concrete
Runway edge lights: PERI
Latitude: 38-38.278333N
Longitude: 090-15.894167W
Elevation: 610.0 ft.
Traffic pattern: leftleft

Heliport Ownership and Management from official FAA records

Ownership: Privately-owned
Owner: SAINT LOUIS CHILDREN'S HOSP.
1 CHILDREN'S PLACE
SAINT LOUIS, MO 63110-1077
Phone 314-454-6000
Manager: FACILITIES MANAGER
1 CHILDREN'S PLACE
SAINT LOUIS, MO 63110-1077
Phone 314-454-6000

Additional Remarks

ROOFTOP.
OWNER DESIRES HELIPORT NOT BE CHARTED.
FOR CD CTC ST LOUIS APCH AT 314-890-1018.

Instrument Procedures

There are no published instrument procedures at 2MU1.

Some nearby airports with instrument procedures:

KCPS - St Louis Downtown Airport (7 nm SE)
KSTL - St Louis Lambert International Airport (8 nm NW)
1H0 - Creve Coeur Airport (13 nm NW)
KSUS - Spirit of St Louis Airport (18 nm W)
KALN - St Louis Regional Airport (18 nm NE)
KSET - St Charles County Smartt Airport (19 nm NW)
 
Loc | Ops | Rwys | IFR | FBO | Links
Com | Nav | Svcs | Stats | Notes

Kansas City Aviation Department
 
Area around 2MU1 (Saint Louis Children's Hospital Heliport)
 
Road maps at: MapQuest Bing Google
 
Aerial photo
No photo
 
Sectional chart

 
Airport distance calculator
Flying to Saint Louis Children's Hospital Heliport? Find the distance to fly.

From to 2MU1

Sunrise and sunset
Times for 06-Dec-2019
 Local
(UTC-6)
 Zulu
(UTC)
Morning civil twilight06:3612:36
Sunrise07:0613:06
Sunset16:3922:39
Evening civil twilight17:0823:08

Current date and time
Zulu (UTC)  06-Dec-2019 11:03:14
Local (UTC-6)  06-Dec-2019 05:03:14
 
METAR
KCPS 
7nm SE 
061053Z AUTO 00000KT 10SM SCT075 BKN090 BKN110 08/04 A3002 RMK AO2 SLP164 T00780039
KSTL 
8nm NW 
061051Z 00000KT 9SM SCT090 BKN150 OVC250 08/04 A3002 RMK AO2 SLP167 T00780033 $
KSUS 
18nm W 
061054Z AUTO 00000KT 10SM CLR 07/04 A3002 RMK AO2 SLP168 T00670044
KALN 
18nm NE 
061055Z AUTO 00000KT 10SM CLR 05/05 A3003 RMK AO2 T00520048
KSET 
19nm NW 
061054Z AUTO A3003 RMK AO2 SLPNO PWINO FZRANO $
TAF
KCPS 
7nm SE 
060520Z 0606/0706 21006KT P6SM VCSH OVC080 TEMPO 0608/0611 -SHRA FM061100 36011KT P6SM OVC050 FM061600 36011KT P6SM OVC025 FM061900 01009KT P6SM SCT025
KSTL 
8nm NW 
060901Z 0609/0712 VRB04KT P6SM VCSH OVC080 FM061100 36011KT P6SM OVC050 FM061600 36011KT P6SM OVC025 FM061900 01009KT P6SM SCT025
KSUS 
18nm W 
060520Z 0606/0706 21006KT P6SM VCSH OVC080 TEMPO 0608/0611 -SHRA FM061100 36011KT P6SM OVC050 FM061600 36011KT P6SM OVC025 FM061900 01009KT P6SM SCT025
NOTAMs
Click for the latest NOTAMs
NOTAMs are issued by the DoD/FAA and will open in a separate window not controlled by AirNav.

 

 
 

Would you like to see your business listed on this page?

 If your business provides an interesting product or service to pilots, flight crews, aircraft, or users of the Saint Louis Children's Hospital Heliport, you should consider listing it here.  To start the listing process, click on the button below
 
Add a business
 

Other Pages about Saint Louis Children's Hospital Heliport

Update a link
 
Copyright © AirNav, LLC. All rights reserved. Privacy Policy  Contact